Orbital Elements at Epoch 2459200.5 (2020-Dec-17.0) TDB
Reference: JPL 15 (heliocentric ecliptic J2000)
Element | Value | Uncertainty (1-sigma) | Units |
e | .122318182114021 | 5.2169e-08 | |
a | 2.658784782708722 | 1.6793e-08 | au |
q | 2.333567061455369 | 1.4022e-07 | au |
i | 15.0204364919702 | 5.6491e-06 | deg |
node | 111.7093892668354 | 1.6982e-05 | deg |
peri | 149.3708114622609 | 2.6075e-05 | deg |
M | 117.5514540825116 | 1.7284e-05 | deg |
tp | 2458683.430753243159 (2019-Jul-18.93075324) | 7.6404e-05 | TDB |
period | 1583.518726206517 4.34 | 1.5002e-05 4.107e-08 | d yr |
n | .227341801547505 | 2.1538e-09 | deg/d |
Q | 2.984002503962075 | 1.8847e-08 | au |
|
| | Orbit Determination Parameters
Additional Information
|